User: anonymous   Login
Location: Haliburton Scout Reserve
(45.0900°N, 78.3200°W)
Time: 07:05:16
(UTC-04:00)
Language:

IDEFIX/ARIANE 42P - Orbit

View from above orbital plane
View from above orbital plane
View from above satellite
View from above satellite

Ground track
Ground track

The orbit data is extracted from the following two-line orbital elements,

1 27422U 02021B   18174.96486646 -.00000008 +00000-0 +13026-4 0  9997
2 27422 098.2560 160.1847 0011488 209.8244 150.2286 14.29263621841673
Epoch (UTC): 23 June 2018 23:09:24
Eccentricity: 0.0011488
inclination: 98.2560°
perigee height: 786 km
apogee height: 802 km
right ascension of ascending node: 160.1847°
argument of perigee: 209.8244°
revolutions per day: 14.29263621
mean anomaly at epoch: 150.2286°
orbit number at epoch: 84167

The dashed part of the orbit path shows where the satellite is in the earth's shadow,  

DLR